Última Atualização: 04:35 - 24/05/2019

Estação Hora Leitura 15 min 1 h 4 h 24 h 96 h No Mês
1 Vidigal 04:30 0,0 0,0 0,0 0,0 0,0 111,2
2 Urca 04:30 0,0 0,0 0,0 0,0 0,0 114,6
3 Rocinha 04:30 0,0 0,0 0,0 0,0 0,0 151,2
4 Tijuca 04:30 0,0 0,0 0,0 0,0 0,0 163,6
5 Santa Teresa 04:30 0,0 0,0 0,0 0,0 0,0 153,0
6 Copacabana 04:30 0,0 0,0 0,0 0,0 0,0 111,2
7 Grajaú 04:30 0,0 0,0 0,0 0,0 0,0 106,8
8 Ilha do Governador 04:30 0,0 0,0 0,0 0,0 0,0 61,2
9 Penha 04:30 0,0 0,0 0,0 0,0 0,0 54,2
10 Madureira 04:30 0,0 0,0 0,0 0,0 0,0 58,8
11 Irajá 04:30 0,0 0,0 0,0 0,0 0,0 67,2
12 Bangu 04:30 0,0 0,0 0,0 0,0 0,0 87,0
13 Piedade 04:30 0,0 0,0 0,0 0,0 0,0 61,2
14 Jacarepaguá/Tanque 04:30 0,0 0,0 0,0 0,0 0,0 82,8
15 Saúde 04:30 0,0 0,0 0,0 0,0 0,0 106,2
16 Jardim Botânico 04:30 0,0 0,0 0,0 0,0 0,0 131,0
17 Barra/Barrinha 04:30 0,0 0,0 0,0 0,0 0,0 159,2
18 Jacarepaguá/Cidade de Deus 04:30 0,0 0,0 0,0 0,0 0,0 77,4
19 Barra/Riocentro 04:30 0,0 0,0 0,0 0,0 0,0 84,4
20 Guaratiba 04:30 0,0 0,0 0,0 0,0 0,0 170,2
21 Est. Grajaú/Jacarepaguá 04:30 0,0 0,0 0,0 0,0 0,0 79,6
22 Santa Cruz 04:30 0,0 0,0 0,0 0,0 0,0 86,8
23 Grande Méier 04:30 0,0 0,0 0,0 0,0 0,0 68,8
24 Anchieta 04:30 0,0 0,0 0,0 0,0 0,0 94,0
25 Grota Funda 04:30 0,0 0,0 0,0 0,0 0,0 171,4
26 Campo Grande 04:30 0,0 0,0 0,0 0,0 0,0 80,8
27 Sepetiba 04:30 0,0 0,0 0,0 0,0 0,0 109,0
28 Alto da Boa Vista 04:30 0,0 0,0 0,0 0,0 0,0 189,0
29 Av. Brasil/Mendanha 04:30 0,0 0,0 0,0 0,0 0,0 76,8
30 Recreio dos Bandeirantes 04:30 0,0 0,0 0,0 0,0 0,0 158,4
31 Laranjeiras 04:30 0,0 0,0 0,0 0,0 0,0 138,2
32 São Cristóvão 04:30 0,0 0,0 0,0 0,0 0,0 74,2
33 Tijuca/Muda 04:30 0,0 0,0 0,0 0,0 0,0 140,8
Dados Meteorológicos
Estação Hora Direção Vento (graus) Velocidade Vento (Km/h) Temperatura (celsius) Pressão (hPa) Umidade (%)
11 Irajá 04:30 - - 22,0 - 90,5
16 Jardim Botânico 04:30 - - 20,2 - 89,1
19 Barra/Riocentro 04:30 - - 22,2 - 83,7
20 Guaratiba 04:30 28,7 4,2 20,6 1006,5 94,2
22 Santa Cruz 04:30 - - 19,1 - 93,7
28 Alto da Boa Vista 04:30 - - 17,1 - 99,4
32 São Cristóvão 04:30 342,0 0,0 22,7 1007,2 78,6